Home   Weather   Siegen   Past weeks

Flag for Germany Past Weather in Siegen, North Rhine-Westphalia, Germany — Yesterday and Last 2 Weeks

Now
59 °F

Partly sunny.


Feels Like: 57 °F
Forecast: 56 / 72 °F
Wind: 10 mph from West

Location: Hessen

Current Time: Sep 28, 2016 at 12:24:06 PM

Latest Report: Sep 28, 2016 at 11:50 AM


Visibility: N/A

Pressure: 30.33 "Hg

Humidity: 72%

Dew Point: 50 °F

Location of SiegenLocation

Past Weather in Siegen — Graph

°F

Siegen Temperature Yesterday

Maximum temperature yesterday: 64 °F (at 2:50 PM)
Minimum temperature yesterday: 52 °F (at 7:50 AM)
Average temperature yesterday: 60 °F

High & Low Weather Summary for the Past Weeks

 TemperatureHumidityPressure
High82 °F (Sep 13, 3:50 PM)100% (Sep 17, 7:50 AM)30.36 "Hg (Sep 17, 7:50 AM)
Low46 °F (Sep 21, 7:50 AM)39% (Sep 14, 3:50 PM)29.89 "Hg (Sep 15, 12:20 PM)
Average62 °F70%30.11 "Hg
* Reported Sep 13 10:20 AM — Sep 28 10:50 AM, Siegen, Weather by CustomWeather, © 2016

Note: Actual official high and low records may vary slightly from our data, if they occured in-between our weather recording intervals... More about our weather records

Advertising

Siegen Weather History for the Previous 24 Hours

Scroll right to see more
 ConditionsComfort  
Time TempWeatherWind HumidityBarometerVisibility
10:50 AM
Wed, Sep 28
59 °FBroken clouds.12 mph68%30.33 "HgN/A
10:20 AM57 °FPartly sunny.14 mph72%30.33 "HgN/A
9:50 AM57 °FPassing clouds.15 mph67%30.30 "HgN/A
9:20 AM55 °FSunny.14 mph72%30.33 "Hg10 mi
8:50 AM54 °FSunny.14 mph72%30.30 "Hg10 mi
8:20 AM54 °FSunny.15 mph72%30.30 "Hg10 mi
7:50 AM54 °FSunny.15 mph72%30.30 "Hg10 mi
8:50 PM
Tue, Sep 27
57 °FClear.6 mph72%30.36 "Hg10 mi
8:20 PM59 °FClear.5 mph68%30.36 "Hg10 mi
7:50 PM59 °FClear.5 mph68%30.33 "Hg10 mi
7:20 PM61 °FClear.2 mph63%30.33 "Hg10 mi
6:50 PM63 °FSunny.3 mph64%30.33 "Hg10 mi
6:20 PM64 °FPassing clouds.5 mph60%30.33 "HgN/A
5:50 PM64 °FPassing clouds.5 mph56%30.33 "HgN/A
5:20 PM64 °FPassing clouds.6 mph60%30.33 "HgN/A
4:50 PM64 °FPassing clouds.7 mph56%30.33 "HgN/A
4:20 PM64 °FPassing clouds.7 mph60%30.33 "HgN/A
3:50 PM64 °FPassing clouds.7 mph64%30.33 "HgN/A
3:20 PM64 °FPassing clouds.6 mph60%30.33 "HgN/A
2:50 PM64 °FPassing clouds.5 mph64%30.33 "HgN/A
2:20 PM63 °FScattered clouds.6 mph56%30.33 "HgN/A
1:50 PM63 °FScattered clouds.3 mph68%30.33 "HgN/A
1:20 PM61 °FScattered clouds.5 mph77%30.33 "HgN/A
12:50 PM61 °FScattered clouds.3 mph68%30.33 "HgN/A
12:20 PM61 °FScattered clouds.2 mph68%30.33 "HgN/A
Weather by CustomWeather, © 2016

See weather overviewHow to use our weather pages